Stündliche Wetter Warszowek

Heute, 28 Oktober, Mittwoch

Zeit Temperatur Niederschläge Wind Luftdruck Luftfeuchtigkeit
00:00 +11°C° 0 mm 1 m/S 734 mmHg 92%
01:00 +11°C° 0 mm 1 m/S 735 mmHg 94%
02:00 +10°C° 0 mm 1 m/S 734 mmHg 94%
03:00 +10°C° 0 mm 1 m/S 734 mmHg 95%
04:00 +9°C° 0 mm 0 m/S 734 mmHg 95%
05:00 +9°C° 0 mm 0 m/S 734 mmHg 95%
06:00 +10°C° 0 mm 1 m/S 735 mmHg 95%
07:00 +10°C° 0 mm 1 m/S 735 mmHg 95%
08:00 +11°C° 0 mm 1 m/S 735 mmHg 89%
09:00 +13°C° 0 mm 2 m/S 735 mmHg 83%
10:00 +14°C° 0 mm 2 m/S 735 mmHg 77%
11:00 +15°C° 0 mm 2 m/S 735 mmHg 74%
12:00 +16°C° 0 mm 2 m/S 735 mmHg 71%
13:00 +17°C° 0 mm 2 m/S 734 mmHg 68%
14:00 +16°C° 0 mm 2 m/S 734 mmHg 72%
15:00 +15°C° 0 mm 2 m/S 734 mmHg 76%
16:00 +14°C° 0 mm 1 m/S 734 mmHg 80%
17:00 +14°C° 0 mm 1 m/S 734 mmHg 81%
18:00 +13°C° 0 mm 1 m/S 735 mmHg 83%
19:00 +13°C° 0 mm 1 m/S 735 mmHg 84%
20:00 +12°C° 0 mm 2 m/S 735 mmHg 86%
21:00 +10°C° 0 mm 2 m/S 735 mmHg 87%
22:00 +10°C° 0 mm 2 m/S 735 mmHg 89%
23:00 +9°C° 0 mm 2 m/S 735 mmHg 88%

Morgen, 29 Oktober, Donnerstag

Zeit Temperatur Niederschläge Wind Luftdruck Luftfeuchtigkeit
00:00 +9°C° 0 mm 2 m/S 735 mmHg 87%
01:00 +8°C° 0 mm 2 m/S 735 mmHg 86%
02:00 +8°C° 0 mm 2 m/S 735 mmHg 86%
03:00 +8°C° 0 mm 2 m/S 735 mmHg 86%
04:00 +8°C° 0 mm 2 m/S 735 mmHg 87%
05:00 +8°C° 0 mm 2 m/S 735 mmHg 87%
06:00 +8°C° 0 mm 2 m/S 735 mmHg 87%
07:00 +8°C° 0 mm 2 m/S 735 mmHg 87%
08:00 +9°C° 0 mm 3 m/S 735 mmHg 82%
09:00 +10°C° 0 mm 3 m/S 735 mmHg 77%
10:00 +12°C° 0 mm 3 m/S 735 mmHg 71%
11:00 +12°C° 0 mm 4 m/S 735 mmHg 68%
12:00 +13°C° 0 mm 4 m/S 734 mmHg 65%
13:00 +13°C° 0 mm 4 m/S 734 mmHg 62%
14:00 +13°C° 0 mm 4 m/S 734 mmHg 65%
15:00 +12°C° 0 mm 4 m/S 734 mmHg 69%
16:00 +11°C° 0 mm 3 m/S 734 mmHg 72%
17:00 +11°C° 0.3 mm 4 m/S 734 mmHg 76%
18:00 +10°C° 0.3 mm 4 m/S 734 mmHg 79%
19:00 +9°C° 0.3 mm 5 m/S 734 mmHg 83%
20:00 +8°C° 0.1 mm 5 m/S 735 mmHg 82%
21:00 +8°C° 0.1 mm 5 m/S 735 mmHg 82%
22:00 +7°C° 0.1 mm 5 m/S 735 mmHg 81%
23:00 +6°C° 0 mm 5 m/S 736 mmHg 82%

übermorgen, 30 Oktober, Freitag

Zeit Temperatur Niederschläge Wind Luftdruck Luftfeuchtigkeit
00:00 +6°C° 0 mm 5 m/S 736 mmHg 84%
01:00 +5°C° 0 mm 4 m/S 736 mmHg 85%
02:00 +5°C° 0 mm 4 m/S 737 mmHg 86%
03:00 +4°C° 0 mm 4 m/S 737 mmHg 87%
04:00 +4°C° 0 mm 4 m/S 738 mmHg 88%
05:00 +4°C° 0 mm 4 m/S 738 mmHg 90%
06:00 +4°C° 0 mm 4 m/S 738 mmHg 91%
07:00 +3°C° 0 mm 4 m/S 738 mmHg 92%
08:00 +5°C° 0 mm 4 m/S 738 mmHg 86%
09:00 +6°C° 0 mm 4 m/S 738 mmHg 79%
10:00 +7°C° 0 mm 4 m/S 738 mmHg 73%
11:00 +8°C° 0 mm 4 m/S 738 mmHg 69%
12:00 +8°C° 0 mm 4 m/S 737 mmHg 65%
13:00 +10°C° 0 mm 3 m/S 737 mmHg 61%
14:00 +9°C° 0.1 mm 3 m/S 736 mmHg 66%
15:00 +8°C° 0.1 mm 3 m/S 736 mmHg 70%
16:00 +8°C° 0.1 mm 2 m/S 736 mmHg 75%
17:00 +7°C° 1.2 mm 3 m/S 735 mmHg 81%
18:00 +7°C° 1.2 mm 3 m/S 735 mmHg 87%
19:00 +7°C° 1.2 mm 3 m/S 735 mmHg 93%
20:00 +7°C° 1.2 mm 3 m/S 735 mmHg 93%
21:00 +7°C° 1.2 mm 3 m/S 735 mmHg 94%
22:00 +7°C° 1.2 mm 2 m/S 735 mmHg 95%
23:00 +7°C° 0.1 mm 3 m/S 735 mmHg 93%

31 Oktober, Samstag

Zeit Temperatur Niederschläge Wind Luftdruck Luftfeuchtigkeit
00:00 +7°C° 0.1 mm 3 m/S 736 mmHg 92%
01:00 +5°C° 0.1 mm 3 m/S 736 mmHg 90%
02:00 +5°C° 0 mm 3 m/S 737 mmHg 90%
03:00 +6°C° 0 mm 2 m/S 738 mmHg 90%
04:00 +5°C° 0 mm 2 m/S 739 mmHg 89%
05:00 +5°C° 0 mm 2 m/S 739 mmHg 90%
06:00 +4°C° 0 mm 2 m/S 740 mmHg 92%
07:00 +5°C° 0 mm 1 m/S 740 mmHg 93%
08:00 +5°C° 0 mm 2 m/S 741 mmHg 87%
09:00 +7°C° 0 mm 2 m/S 741 mmHg 81%
10:00 +8°C° 0 mm 2 m/S 742 mmHg 76%
11:00 +8°C° 0 mm 2 m/S 742 mmHg 73%
12:00 +9°C° 0 mm 2 m/S 742 mmHg 70%
13:00 +10°C° 0 mm 2 m/S 742 mmHg 66%
14:00 +9°C° 0 mm 2 m/S 742 mmHg 70%
15:00 +9°C° 0 mm 1 m/S 742 mmHg 74%
16:00 +8°C° 0 mm 1 m/S 742 mmHg 78%
17:00 +8°C° 0 mm 1 m/S 742 mmHg 81%
18:00 +7°C° 0 mm 1 m/S 742 mmHg 83%
19:00 +6°C° 0 mm 1 m/S 743 mmHg 86%
20:00 +6°C° 0 mm 1 m/S 743 mmHg 87%
21:00 +6°C° 0 mm 1 m/S 743 mmHg 88%
22:00 +5°C° 0 mm 1 m/S 743 mmHg 90%
23:00 +5°C° 0 mm 1 m/S 743 mmHg 90%

1 November, Sonntag

Zeit Temperatur Niederschläge Wind Luftdruck Luftfeuchtigkeit
00:00 +5°C° 0 mm 1 m/S 743 mmHg 91%
01:00 +5°C° 0 mm 1 m/S 743 mmHg 92%
02:00 +5°C° 0 mm 1 m/S 742 mmHg 92%
03:00 +4°C° 0 mm 1 m/S 742 mmHg 93%
04:00 +3°C° 0 mm 2 m/S 742 mmHg 94%
05:00 +3°C° 0 mm 2 m/S 742 mmHg 94%
06:00 +3°C° 0 mm 2 m/S 742 mmHg 94%
07:00 +3°C° 0 mm 2 m/S 742 mmHg 94%
08:00 +4°C° 0 mm 2 m/S 742 mmHg 88%
09:00 +5°C° 0 mm 3 m/S 742 mmHg 82%
10:00 +8°C° 0 mm 3 m/S 742 mmHg 76%
11:00 +8°C° 0 mm 3 m/S 741 mmHg 73%
12:00 +9°C° 0 mm 3 m/S 741 mmHg 70%
13:00 +10°C° 0 mm 3 m/S 741 mmHg 67%
14:00 +9°C° 0 mm 3 m/S 741 mmHg 72%
15:00 +8°C° 0 mm 3 m/S 740 mmHg 77%
16:00 +7°C° 0 mm 2 m/S 740 mmHg 82%
17:00 +7°C° 0 mm 2 m/S 740 mmHg 84%
18:00 +6°C° 0 mm 2 m/S 740 mmHg 85%
19:00 +6°C° 0 mm 2 m/S 740 mmHg 87%
20:00 +6°C° 0 mm 2 m/S 740 mmHg 86%
21:00 +5°C° 0 mm 2 m/S 740 mmHg 84%
22:00 +5°C° 0 mm 2 m/S 740 mmHg 83%
23:00 +5°C° 0 mm 2 m/S 740 mmHg 82%

2 November, Montag

Zeit Temperatur Niederschläge Wind Luftdruck Luftfeuchtigkeit
00:00 +5°C° 0 mm 2 m/S 740 mmHg 81%
01:00 +5°C° 0 mm 2 m/S 740 mmHg 81%
02:00 +5°C° 0 mm 2 m/S 740 mmHg 80%
03:00 +5°C° 0 mm 2 m/S 739 mmHg 80%
04:00 +4°C° 0 mm 2 m/S 739 mmHg 80%
05:00 +4°C° 0 mm 2 m/S 740 mmHg 80%
06:00 +4°C° 0 mm 2 m/S 740 mmHg 80%
07:00 +4°C° 0 mm 2 m/S 740 mmHg 80%
08:00 +6°C° 0 mm 2 m/S 740 mmHg 75%
09:00 +8°C° 0 mm 2 m/S 740 mmHg 70%
10:00 +9°C° 0 mm 3 m/S 740 mmHg 64%
11:00 +10°C° 0 mm 3 m/S 740 mmHg 63%
12:00 +11°C° 0 mm 3 m/S 740 mmHg 61%
13:00 +12°C° 0 mm 3 m/S 740 mmHg 60%
14:00 +12°C° 0 mm 2 m/S 740 mmHg 65%
15:00 +10°C° 0 mm 2 m/S 740 mmHg 69%
16:00 +9°C° 0 mm 2 m/S 740 mmHg 74%
17:00 +8°C° 0 mm 2 m/S 740 mmHg 76%
18:00 +8°C° 0 mm 2 m/S 740 mmHg 78%
19:00 +7°C° 0 mm 2 m/S 740 mmHg 80%
20:00 +7°C° 0 mm 2 m/S 740 mmHg 81%
21:00 +6°C° 0 mm 2 m/S 740 mmHg 82%
22:00 +6°C° 0 mm 2 m/S 740 mmHg 83%
23:00 +6°C° 0 mm 2 m/S 740 mmHg 83%
Mehr zeigen

Wir brauchen deine Erlaubnis

Meteoprog und unser Service Anbieter werden persönliche Daten aufbewahren, so wie Cookies, Geräte Bezeichnung oder ähnliche Technologien von deinem Gerät und Prozess, so wie Persönliche Daten Inhalte und Werbungen, genauso wie social Media und den Verkehr zu analysieren.

  • Aufbewahrung und/oder Zugang zu deiner Geräte Informationen.

    Cookies, Geräte Bezeichnung oder andere Informationen, können aufbewahrt oder Zugang zu deinem Gerät erhalten, für den Grund, der oben angegeben wird.

  • Personalisierte Werbung und Inhalte, Messungen, Einblick in das Publikum und Produkt Entwicklung.

    Werbungen und Inhalte können personalisiert werden, basierend auf ein Profil. Mehr Daten können besser personalisierte Werbungen und Inhalte hinzufügen. Werbung und Inhalte können gezeigt und gemessen werden. Einblicke über das Publikum, welche die Werbung gesehen haben und den Inhalt, können abgeleitet werden. So wie Daten können genutzt werden, um es zu verbessern oder die Benutzer Erfahrung zu verbessern das System und die Software.

Wenn du “Ich stimme zu” klickst, erlaubst du uns, die Cookies zu benutzen die Geräte Bezeichnung, den Web oder ähnliche Technologien zu benutzen. Deine Settings, können in deinem Gerät bei deinem Browser geändert werden.

Für den bestimmten Zweck, berechtigten Interessen beruhen darauf, mehr als auf den Inhalt. Du kannst mehr darüber in unseren Privaten und Cookie Politik lesen.